Date String (YYYY-MM-DD hh:mm:ss) UTC,Instrument flags,Ambient pressure (hPa),Sample flow (lpm),Bypass flow (lpm),Sample temperature (°C),Ambient temperature (°C),ASC tube jacket temperature (°C),LED temperature (°C),Box temperature (°C),Sample RH (%),Span deviation,Mass concentration (μg/m³),Mass concentration (μg/m³),Mass concentration (μg/m³)
DateTimeUTC,F1_M11,P_M11,Q1_M11,Q2_M11,T1_M11,T2_M11,T3_M11,T4_M11,T5_M11,U1_M11,ZSPAN_M11,X2_M11,X0_M11,X1_M11
2021-08-23 06:00:00,,0827.0,5.01,0.00,29.5,28.4,00.0,38.6,31.3,19.6,0002.0,0007.29,0014.39,0006.42
2021-08-23 06:01:00,,0827.0,4.99,0.00,29.5,28.5,00.0,38.6,31.4,19.7,0002.1,0007.43,0014.78,0006.50
2021-08-23 06:02:00,,0827.3,5.00,0.00,29.6,28.6,00.0,38.6,31.4,19.8,0002.1,0007.62,0015.10,0006.60
2021-08-23 06:03:00,,0827.2,5.00,0.00,29.6,28.7,00.0,38.6,31.4,20.1,0002.3,0007.78,0015.15,0006.69
2021-08-23 06:04:00,,0827.2,4.99,0.00,29.6,28.7,00.0,38.6,31.5,20.2,0002.3,0007.90,0015.46,0006.77
2021-08-23 06:05:00,,0827.0,5.00,0.00,29.7,28.8,00.0,38.7,31.5,20.4,0002.3,0008.08,0016.46,0006.89
2021-08-23 06:06:00,,0827.0,5.01,0.00,29.7,28.9,00.0,38.7,31.6,20.6,0002.2,0008.29,0017.18,0007.06
2021-08-23 06:07:00,,0827.0,5.01,0.00,29.7,28.9,00.0,38.7,31.6,20.8,0001.7,0008.36,0017.40,0007.18
2021-08-23 06:08:00,,0827.0,4.99,0.00,29.8,29.0,00.0,38.7,31.6,20.7,0001.6,0008.36,0017.04,0007.29
2021-08-23 06:09:00,,0827.0,5.01,0.00,29.8,29.0,00.0,38.8,31.7,20.7,0001.7,0008.55,0017.06,0007.50
2021-08-23 06:10:00,,0827.1,5.00,0.00,29.8,28.7,00.0,38.8,31.6,20.7,0001.6,0008.78,0016.99,0007.76
2021-08-23 06:11:00,,0827.0,4.99,0.00,29.7,26.8,00.0,38.8,31.1,20.8,0001.9,0009.03,0015.75,0008.08
2021-08-23 06:12:00,,0827.0,5.01,0.00,29.6,26.3,00.0,38.7,30.9,20.9,0001.9,0009.34,0015.82,0008.44
2021-08-23 06:13:00,,0827.2,4.99,0.00,29.5,26.6,00.0,38.7,31.0,21.0,0002.2,0009.62,0016.01,0008.78
2021-08-23 06:14:00,,0827.3,5.00,0.00,29.5,27.0,00.0,38.7,31.1,21.3,0001.8,0009.83,0016.15,0009.06
2021-08-23 06:15:00,,0827.1,5.00,0.00,29.5,27.3,00.0,38.7,31.1,21.4,0001.7,0010.07,0016.21,0009.37
2021-08-23 06:16:00,,0827.0,5.00,0.00,29.5,27.7,00.0,38.6,31.2,21.3,0001.5,0010.31,0016.12,0009.64
2021-08-23 06:17:00,,0827.1,5.01,0.00,29.5,27.9,00.0,38.6,31.2,21.2,0001.9,0010.54,0015.98,0009.88
2021-08-23 06:18:00,,0827.1,5.01,0.00,29.5,28.1,00.0,38.6,31.3,21.3,0002.3,0010.82,0016.08,0010.11
2021-08-23 06:19:00,,0827.1,4.99,0.00,29.5,28.3,00.0,38.6,31.3,21.0,0002.2,0011.04,0016.82,0010.32
2021-08-23 06:20:00,,0827.1,5.02,0.00,29.6,28.4,00.0,38.6,31.4,21.2,0002.2,0011.14,0016.84,0010.43
2021-08-23 06:21:00,,0827.1,4.99,0.00,29.6,28.5,00.0,38.6,31.4,21.0,0002.2,0011.25,0017.08,0010.49
2021-08-23 06:22:00,,0827.2,5.00,0.00,29.6,28.6,00.0,38.7,31.4,21.2,0002.2,0011.33,0018.84,0010.53
2021-08-23 06:23:00,,0827.2,5.01,0.00,29.7,28.7,00.0,38.7,31.5,21.1,0002.1,0011.42,0019.02,0010.59
2021-08-23 06:24:00,,0827.1,4.99,0.00,29.7,28.8,00.0,38.7,31.5,21.0,0002.0,0011.59,0019.32,0010.73
2021-08-23 06:25:00,,0827.1,5.00,0.00,29.7,28.9,00.0,38.7,31.6,20.9,0002.1,0011.90,0019.83,0010.97
2021-08-23 06:26:00,,0827.1,5.01,0.00,29.8,28.9,00.0,38.7,31.6,21.0,0002.4,0012.24,0020.20,0011.28
2021-08-23 06:27:00,,0827.2,5.00,0.00,29.8,29.0,00.0,38.8,31.6,20.8,0002.6,0012.66,0020.75,0011.67
2021-08-23 06:28:00,,0827.2,4.98,0.00,29.8,29.0,00.0,38.8,31.7,20.8,0002.3,0013.16,0022.29,0012.14
2021-08-23 06:29:00,,0827.2,5.00,0.00,29.9,28.9,00.0,38.8,31.7,20.6,0002.1,0013.72,0023.62,0012.65
2021-08-23 06:30:00,,0827.2,5.01,0.00,29.8,27.3,00.0,38.8,31.2,20.7,0002.2,0014.27,0024.20,0013.17
2021-08-23 06:31:00,,0827.2,5.00,0.00,29.7,26.3,00.0,38.8,31.0,21.1,0002.2,0014.83,0024.47,0013.64
2021-08-23 06:32:00,,0827.2,5.00,0.00,29.6,26.5,00.0,38.7,31.0,21.1,0002.4,0015.30,0025.23,0014.11
2021-08-23 06:33:00,,0827.2,5.00,0.00,29.5,26.9,00.0,38.7,31.0,21.1,0002.6,0015.83,0024.49,0014.62
2021-08-23 06:34:00,,0827.2,5.01,0.00,29.5,27.3,00.0,38.7,31.1,21.0,0002.9,0016.35,0025.36,0015.09
2021-08-23 06:35:00,,0827.2,5.01,0.00,29.5,27.6,00.0,38.7,31.2,21.2,0003.0,0016.80,0025.98,0015.50
2021-08-23 06:36:00,,0827.2,4.99,0.00,29.5,27.9,00.0,38.7,31.2,21.3,0003.1,0017.20,0026.58,0015.85
2021-08-23 06:37:00,,0827.2,5.00,0.00,29.5,28.1,00.0,38.6,31.3,21.1,0003.1,0017.51,0027.20,0016.12
2021-08-23 06:38:00,,0827.2,5.00,0.00,29.6,28.2,00.0,38.7,31.3,21.0,0003.2,0017.80,0027.56,0016.40
2021-08-23 06:39:00,,0827.2,5.00,0.00,29.6,28.4,00.0,38.7,31.4,21.0,0003.4,0018.09,0027.75,0016.67
2021-08-23 06:40:00,,0827.2,5.01,0.00,29.6,28.5,00.0,38.7,31.4,20.8,0003.3,0018.28,0027.32,0016.88
2021-08-23 06:41:00,,0827.2,5.00,0.00,29.7,28.6,00.0,38.7,31.5,20.7,0003.2,0018.48,0027.21,0017.08
2021-08-23 06:42:00,,0827.2,4.99,0.00,29.7,28.7,00.0,38.7,31.5,20.5,0003.3,0018.71,0027.46,0017.32
2021-08-23 06:43:00,,0827.2,4.99,0.00,29.7,28.7,00.0,38.7,31.5,20.5,0003.2,0019.05,0027.84,0017.62
2021-08-23 06:44:00,,0827.2,5.01,0.00,29.7,28.8,00.0,38.7,31.5,20.4,0003.0,0019.34,0027.95,0017.92
2021-08-23 06:45:00,,0827.2,5.00,0.00,29.8,28.9,00.0,38.7,31.6,20.3,0002.8,0019.46,0027.74,0018.06
2021-08-23 06:46:00,,0827.2,4.99,0.00,29.8,28.9,00.0,38.8,31.6,20.4,0002.8,0019.53,0028.26,0018.12
2021-08-23 06:47:00,,0827.2,4.99,0.00,29.8,29.0,00.0,38.8,31.7,20.7,0002.7,0019.52,0028.47,0018.12
2021-08-23 06:48:00,,0827.2,5.00,0.00,29.9,29.0,00.0,38.8,31.7,20.6,0002.5,0019.40,0027.89,0018.04
2021-08-23 06:49:00,,0827.2,5.00,0.00,29.8,27.6,00.0,38.8,31.3,20.1,0002.3,0019.24,0027.30,0017.89
2021-08-23 06:50:00,,0827.2,5.00,0.00,29.6,25.7,00.0,38.8,30.8,20.1,0002.1,0019.01,0026.24,0017.71
2021-08-23 06:51:00,,0827.2,5.00,0.00,29.5,25.4,00.0,38.7,30.7,20.6,0002.1,0018.75,0026.68,0017.44
2021-08-23 06:52:00,,0827.2,5.01,0.00,29.4,25.8,00.0,38.7,30.7,20.5,0001.9,0018.45,0027.17,0017.16
2021-08-23 06:53:00,,0827.4,5.00,0.00,29.3,26.3,00.0,38.6,30.8,20.5,0001.8,0018.11,0027.11,0016.86
2021-08-23 06:54:00,,0827.3,5.01,0.00,29.3,26.7,00.0,38.6,30.9,20.8,0001.8,0017.77,0026.48,0016.55
2021-08-23 06:55:00,,0827.2,4.99,0.00,29.3,27.1,00.0,38.5,30.9,20.7,0001.7,0017.41,0026.04,0016.17
2021-08-23 06:56:00,,0827.2,5.00,0.00,29.3,27.4,00.0,38.5,31.0,20.7,0001.6,0017.16,0025.65,0015.93
2021-08-23 06:57:00,,0827.2,5.01,0.00,29.3,27.6,00.0,38.5,31.1,20.8,0001.5,0016.95,0025.28,0015.75
2021-08-23 06:58:00,,0827.2,5.00,0.00,29.3,27.8,00.0,38.5,31.1,20.4,0001.4,0016.86,0025.40,0015.69
2021-08-23 06:59:00,,0827.2,4.99,0.00,29.4,28.0,00.0,38.5,31.1,20.4,0001.6,0016.91,0025.72,0015.72
